Location: Dumpton Point
(51.3500°N, 1.4433°E)
Time: 21:16:01
(UTC+00:00)

Vanguard 1 - Visible Passes

Search period start: 17 April 2021 00:00
Search period end: 27 April 2021 00:00
Orbit: 648 x 3834 km, 34.3° (Epoch: 17 April)

Date Brightness Start Highest point End Pass type
(mag) Time Alt. Az. Time Alt. Az. Time Alt. Az.
17 Apr 13.5 20:27:32 10° W 20:45:03 29° SW 21:00:04 10° S visible
18 Apr 13.6 20:49:33 10° W 21:05:10 24° SW 21:18:51 10° S visible
19 Apr 13.7 21:12:16 10° W 21:25:10 18° SW 21:36:48 10° SSW visible
20 Apr 13.7 19:05:42 10° W 19:24:05 34° SSW 19:41:49 10° SSE visible
20 Apr 13.9 21:36:32 10° WSW 21:45:03 13° SW 21:53:02 10° SSW visible
21 Apr 13.8 19:27:15 10° W 19:44:28 29° SW 20:01:06 10° SSE visible
22 Apr 13.8 19:49:10 10° W 20:04:43 24° SW 20:19:49 10° S visible
23 Apr 14.0 20:11:47 10° W 20:24:52 19° SW 20:37:40 10° SSW visible
24 Apr 14.1 20:35:51 10° WSW 20:44:54 14° SW 20:53:51 10° SSW visible
